Regional Weather Roundup
Issued by NWS

Home | Current Version | Previous Version | Graphics & Text | Print | Product List | Glossary On
Versions: 1 2 3 4 5 6 7 8 9 10 11 12 13 14 15 16 17 18 19 20 21 22 23 24 25 26 27 28 29 30 31 32 33 34 35 36 37 38 39 40 41 42 43 44 45 46 47 48 49 50
701
ASUS43 KDTX 251510
RWRMI
MICHIGAN HOURLY REGIONAL WEATHER ROUNDUP
NATIONAL WEATHER SERVICE DETROIT/PONTIAC MI
1100 AM EDT MON JUL 25 2016

NOTE: "FAIR" INDICATES FEW OR NO CLOUDS BELOW 12,000 FEET WITH NO
SIGNIFICANT WEATHER AND/OR OBSTRUCTION TO VISIBILITY.

MIZ047>049-052>055-059>063-066>070-074>076-081>083-251600-
SOUTHEAST LOWER MICHIGAN

CITY           SKY/WX    TMP DP  RH WIND       PRES   REMARKS
ADRIAN         MOSUNNY   79  71  76 W6        29.97R
ALMA           MOSUNNY   81  69  68 NW8       29.94S
ANN ARBOR      PTSUNNY   82  71  69 SW7       29.94S
BAD AXE        SUNNY     80  64  56 NW12      29.92R
CARO           SUNNY     82  67  60 NW8       29.92R
DETROIT CITY   CLOUDY    79  71  76 W7        29.93R
DETROIT        CLOUDY    82  70  66 NW10      29.94R
FLINT          MOSUNNY   86  69  56 W13       29.93R HX  90
GROSSE ILE     CLOUDY    79  72  79 NW6       29.93R
HOWELL         SUNNY     82  68  62 W8        29.95R

CITY           SKY/WX    TMP DP  RH WIND       PRES   REMARKS
JACKSON        SUNNY     81  72  74 W7        29.96R
LAMBERTVILLE   CLOUDY    80  70  73 W6        29.97R
LANSING        SUNNY     82  68  62 W13       29.95R
LAPEER         FAIR      81  70  69 W8        29.92S
MASON          SUNNY     82  68  64 W8        29.95S
MONROE         CLOUDY    80  74  81 W8G16     29.94R
PONTIAC        CLOUDY    80  70  71 W8        29.93R
PORT HOPE        N/A     79  66  64 NW10      29.88
PORT HURON     CLOUDY    79  72  78 W6        29.91S
TRI CITIES     SUNNY     81  68  64 NW8       29.93R
MIDLAND        FAIR      82  66  57 NW9       29.91S
TROY           CLOUDY    81  68  65 W6        29.95R
SAGINAW HB     SUNNY     82  63  51 NW8       29.92R
$$
MIZ043>046-050>051-056>058-064>065-071>073-077>080-251600-
SOUTHWEST LOWER MICHIGAN

CITY           SKY/WX    TMP DP  RH WIND       PRES   REMARKS
BATTLE CREEK   SUNNY     79  68  69 NW12      29.97S
BENTON HARBOR  SUNNY     78  66  66 N7        29.98S
BIG RAPIDS     SUNNY     79  68  69 W9        29.94S
COLDWATER      MOSUNNY   79  70  73 W8        29.98S
FREMONT        FAIR      80  67  64 NW7       29.95S
HOLLAND        SUNNY     78  67  68 NW12      29.98R
GRAND RAPIDS   MOSUNNY   81  65  58 N7        29.96R
IONIA          FAIR      80  67  64 NW7       29.95R
KALAMAZOO      SUNNY     82  67  60 W8        29.97S
LUDINGTON      SUNNY     77  67  71 NW14      29.95R
MARSHALL       SUNNY     82  70  66 W6        29.97R
MOUNT PLEASANT SUNNY     82  63  52 NW7       29.93S
MUSKEGON       MOSUNNY   80  67  64 W7        29.96R
SOUTH HAVEN    SUNNY     77  66  69 N10       29.99R
$$
MIZ016>042-251600-
NORTHERN LOWER MICHIGAN

CITY           SKY/WX    TMP DP  RH WIND       PRES   REMARKS
ALPENA         SUNNY     82  61  48 W9        29.86S
BEAVER ISLAND  SUNNY     74  64  69 W13       29.90R
BELLAIRE       SUNNY     77  62  59 W12G18    29.92R
CADILLAC       SUNNY     78  62  58 W10       29.94S
CHARLEVOIX     SUNNY     75  64  69 W14       29.93S
FRANKFORT      SUNNY     76  65  69 W8        29.94R
GAYLORD        MOSUNNY   77  61  57 W8        29.91S
GRAYLING       MOSUNNY   80  64  57 NW13      29.92S
HARBOR SPRINGS SUNNY     73  67  79 SW9       29.88S
HOUGHTON LAKE  SUNNY     79  63  57 W13       29.93S
MANISTEE       SUNNY     76  66  71 W12       29.94S
OSCODA         SUNNY     82  65  56 W10G16    29.88S
PELLSTON       SUNNY     76  61  59 W9        29.88S
ROGERS CITY    MOSUNNY   79  62  56 W9        29.87R
TRAVERSE CITY  MOSUNNY   81  62  52 NW10      29.90S
$$
MIZ007>008-015-251600-
EASTERN UPPER MICHIGAN

CITY           SKY/WX    TMP DP  RH WIND       PRES   REMARKS
KINROSS        CLOUDY    73  62  68 NW15      29.85S
MACKINAC ISLAN SUNNY     72  68  89 W13       29.86S
NEWBERRY       CLOUDY    73  61  64 NW9G16    29.87S
S. S. MARIE    PTSUNNY   72  62  71 NW13G22   29.85R
MUNISING         N/A     71  62  73 NW16G24   29.90R
$$
MIZ004>006-011>014-085-251600-
CENTRAL UPPER MICHIGAN

CITY           SKY/WX    TMP DP  RH WIND       PRES   REMARKS
MANISTIQUE     CLOUDY    75  63  66 NW14      29.89R
ESCANABA       SUNNY     75  61  60 W14       29.89F
MENOMINEE      SUNNY    N/A N/A N/A NW7       29.94
SAWYER-GWINN   PTSUNNY   72  59  64 NW13G21   29.92R
$$
MIZ001>003-009>011-084-251600-
WESTERN UPPER MICHIGAN

CITY           SKY/WX    TMP DP  RH WIND       PRES   REMARKS
IRON MOUNTAIN  SUNNY     76  56  49 NW20G25   29.94R
HOUGHTON       SUNNY     70  58  65 NW17G28   29.93R
COPPER HARBOR    N/A     70  59  68 N22G29    29.89R
IRONWOOD       SUNNY     72  59  64 NW10      29.99R
$$

ABBREVIATIONS USED IN REMARKS
   TC - TEMPERATURE IN CELSIUS
  WCI - WIND CHILL INDEX
   HX - HEAT INDEX
  VSB - VISIBILITY





USA.gov is the U.S. government's official web portal to all federal, state and local government web resources and services.